Find Astrocast-0103

NORAD ID: 47487 Int'l Des: 2021-006 Owner: ACAST Country: CH decayed
LEOCIRCULARRETROGRADE

Historical Track — 3. Mai 2026

3D-Globus wird geladen...

Über Astrocast-0103

Beschreibung wird geladen...

Höhenverlauf

Loading altitude history...

Zweizeiliger Elementsatz

1 47487U 21006CC 26123.02177089 .09787114 23920-5 21229-2 0 9993
2 47487 97.2367 195.6334 0013101 276.8436 83.1368 16.30381751294121
Epoch: 3. Mai 2026 • Age: 363 hours

Aktueller Status

Position data unavailable
Startdatum 24. Jan. 2021
Alter 5.3 years
Verglühungsdatum 3. Mai 2026
Typ other

Technische Details

Klassifizierung Payload
Masse 5.00 kg
Trockenmasse 5.00 kg
Gesamtmasse 5.00 kg
Länge 0.30 m
Durchmesser 0.10 m
Spannweite 0.30 m
Form Box
Hersteller ACAST
Bus-Typ Cubesat 3U
Phasenstatus Reentered
Besitzer/Staat ACAST/CH

Most Searched